Location: Aciu?a
(46.2833°N, 22.4500°E)
Time: 12:14:41
(UTC+00:00)

Cosmos 2237 - Pass Details

Date: 25 October 2021
Orbit: 845 x 856 km, 70.8° (Epoch: 07 December)

Event Time Altitude Azimuth Distance (km) Brightness Sun altitude
Rises 17:12:02 0° 210° (SSW) 3,407 7.7 -18.8°
Reaches altitude 10° 17:14:29 10° 212° (SSW) 2,476 7.0 -19.3°
Maximum altitude 17:20:11 76° 298° (WNW) 884 4.3 -20.3°
Drops below altitude 10° 17:25:56 10° 24° (NNE) 2,497 6.4 -21.2°
Enters shadow 17:27:08 - 25° (NNE) 2,953 6.8 -21.5°
